[[{"header":{"parameterUnit":"m.s-1","parameterCategory":2,"la1":30.2991,"la2":30.254,"lo1":-89.0895,"lo2":-89.0444,"dy":0.0017,"dx":0.0017,"nx":28,"ny":28,"refTime":"2023-08-15T03:00:00:Z","depth":"0","parameterNumber":2,"parameterNumberName":"U-component_of_CURRENTS"},"data":[0,0,0,0,0,0,0,0,0,0,0,0,0,0,0,0,0,0,0,0,0,0,0,0,0,0,0,0,0,0,0,0,0,0,0,0,0,0,0,0,0,0,0,0,0,0,0,0,0,0,0,0,0,0,0,0,0,0,0.1927,0.1927,0,0.1906,0.1906,0.1906,0.1909,0.1909,0.1909,0.1909,0.2073,0.2077,0.2082,0,0,0,0,0,0,0,0,0,0,0,0,0,0.1957,0.1957,0.1928,0.1927,0.1926,0.1906,0.1906,0.1906,0.1909,0.1909,0.1909,0.1909,0.2072,0.2077,0.2082,0,0,0,0,0,0,0,0,0,0,0,0,0,0.1945,0.1957,0.1928,0.1922,0.1921,0.1906,0.1906,0.1906,0.1909,0.1909,0.1909,0.1909,0.207,0.2076,0.2083,0.2124,0,0,0.2103,0.2106,0,0,0,0,0,0,0,0,0.1945,0.1944,0.1924,0.1923,0.1921,0.1906,0.1976,0.1987,0.1909,0.1918,0.1909,0.1909,0.2032,0.2042,0.2041,0.2131,0.2138,0.2104,0.2108,0.211,0.2112,0,0,0,0,0,0,0,0.1946,0.1945,0.1923,0.1923,0.1921,0.1916,0.1915,0.1978,0.1982,0.1917,0.1916,0.1907,0.2033,0.2034,0.2045,0.2141,0.2103,0.2109,0.2113,0.2116,0.2383,0.2386,0,0,0,0,0,0,0.1942,0.1946,0.1924,0.1922,0.1929,0.1915,0.1914,0.1915,0.1977,0.1984,0.1907,0.1907,0.2023,0.2037,0.2051,0.2179,0.211,0.2117,0.212,0.238,0.2384,0.2387,0,0,0,0,0,0,0.1943,0.194,0.1924,0.193,0.1927,0.1914,0.1915,0.1914,0.1917,0.1967,0.1978,0.1912,0.2024,0.2042,0.2125,0.2183,0.2119,0.2125,0.2376,0.2381,0.2386,0.2387,0,0,0,0,0,0,0.1944,0.1941,0.1942,0.193,0.1926,0.192,0.1915,0.1913,0.191,0.191,0.1975,0.1989,0.2025,0.2115,0.2131,0.2191,0.2131,0.2372,0.2378,0.2384,0.2383,0.2391,0.2399,0,0,0,0,0,0.1945,0.1968,0.1943,0.194,0.1928,0.192,0.1919,0.1912,0.191,0.1915,0.1969,0.1987,0.2165,0.2122,0.2141,0.2203,0.2369,0.2377,0.2384,0.238,0.239,0.2398,0,0,0,0,0,0,0.2014,0.1969,0.1942,0.1957,0.1931,0.1919,0.193,0.1914,0.1954,0.1968,0.2013,0.2033,0.2128,0.2171,0.2121,0.2303,0.2277,0.2288,0.2268,0.2278,0.2286,0.2257,0.2136,0,0,0,0,0,0.2017,0.2006,0.1966,0.1979,0.1967,0.1943,0.1939,0.1928,0.1953,0.1968,0.2003,0.2079,0.2172,0.2224,0.229,0.2385,0.2404,0.2446,0.2454,0.2459,0.2453,0.2531,0.2543,0.2411,0.241,0.241,0,0,0.204,0.2021,0.2012,0.1988,0.1974,0.1971,0.1944,0.1944,0.1958,0.1987,0.2036,0.2094,0.2199,0.2301,0.2352,0.2346,0.251,0.2469,0.2472,0.2463,0.2539,0.2552,0.2563,0.2415,0.2414,0.2414,0,0,0.209,0.2071,0.2068,0.2048,0.2017,0.2003,0.2001,0.1976,0.1986,0.2029,0.2075,0.2158,0.2266,0.2354,0.2421,0.2516,0.2535,0.2555,0.2584,0.266,0.267,0.2679,0.2713,0.2725,0.2573,0.2573,0.2573,0,0.212,0.2107,0.2071,0.2069,0.2057,0.202,0.202,0.2033,0.2039,0.2065,0.2053,0.2229,0.2298,0.2463,0.2495,0.2532,0.2558,0.2533,0.2665,0.2675,0.2684,0.2716,0.2729,0.2574,0.2574,0.2573,0.2573,0,0.2155,0.214,0.215,0.2121,0.2114,0.2111,0.2101,0.2108,0.2108,0.2119,0.2229,0.2312,0.242,0.2473,0.2514,0.2646,0.2635,0.2647,0.2625,0.2696,0.2727,0.2741,0.2575,0.2575,0.2574,0.2574,0,0,0.2209,0.2173,0.217,0.2144,0.2132,0.2121,0.2168,0.2185,0.2215,0.2249,0.2309,0.2465,0.2482,0.2559,0.2629,0.2699,0.2782,0.2698,0.2702,0.2702,0.292,0.2778,0.278,0.2812,0.2815,0.2817,0.2909,0,0.2231,0.2221,0.221,0.22,0.218,0.2174,0.2211,0.2235,0.2265,0.2313,0.2419,0.2503,0.2532,0.2585,0.2666,0.2751,0.282,0.2753,0.2877,0.288,0.2721,0.2792,0.262,0.2676,0.2923,0.2925,0.2927,0,0.224,0.2229,0.2218,0.2194,0.219,0.2195,0.2225,0.2254,0.234,0.2369,0.2472,0.2532,0.267,0.266,0.2842,0.2795,0.2857,0.2907,0.2913,0.2785,0.2764,0.2652,0.2691,0.2643,0.2948,0.2946,0.2944,0,0.223,0.2221,0.2205,0.2196,0.2188,0.2198,0.2206,0.2269,0.2292,0.2402,0.2428,0.2594,0.2656,0.278,0.2875,0.2871,0.3027,0.3045,0.298,0.297,0.2848,0.2821,0.2826,0.3165,0.3164,0.3164,0.3164,0,0.222,0.2199,0.2192,0.2172,0.2162,0.2176,0.2191,0.2226,0.2294,0.2327,0.2448,0.2504,0.2682,0.2786,0.2887,0.2954,0.3049,0.2983,0.2991,0.2842,0.2815,0.2785,0.278,0.3167,0.3167,0.3166,0.3165,0,0.2166,0.2175,0.2138,0.2137,0.2139,0.2121,0.2131,0.2149,0.2222,0.227,0.2302,0.2442,0.2568,0.2722,0.2906,0.2934,0.2948,0.3041,0.2822,0.28,0.2654,0.2655,0.2579,0.2516,0.2987,0.2984,0.2982,0,0.2118,0.2097,0.2084,0.2061,0.2048,0.2038,0.2035,0.2098,0.2119,0.2223,0.2242,0.2371,0.2444,0.2632,0.2731,0.2866,0.2846,0.2749,0.2711,0.2612,0.2625,0.2557,0.2507,0.2566,0.256,0.2556,0.2552,0,0.2011,0.2016,0.1988,0.195,0.1933,0.1928,0.1934,0.1942,0.2026,0.2063,0.2132,0.2196,0.2348,0.2383,0.2508,0.2582,0.2579,0.2653,0.2641,0.2353,0.2197,0.2149,0.2521,0.2511,0.2515,0.2518,0.252,0.2522,0.1909,0.187,0.1844,0.1811,0.1804,0.1808,0.1779,0.1812,0.1828,0.1853,0.1969,0.1981,0.2071,0.2217,0.227,0.2233,0.2314,0.2188,0.2219,0.2176,0.2033,0.227,0.2205,0.2208,0.2209,0.2211,0.2213,0,0.175,0.1738,0.1701,0.1668,0.1641,0.1684,0.1696,0.1663,0.1649,0.1673,0.1698,0.1706,0.1721,0.182,0.1863,0.1821,0.1789,0.1798,0.1706,0.17,0.1995,0.1891,0.1644,0.1644,0.1644,0.1644,0.1644,0.1644,0.1657,0.1592,0.1602,0.1523,0.1508,0.1456,0.1453,0.1421,0.1412,0.1341,0.1301,0.1336,0.1497,0.1578,0.1569,0.155,0.1506,0.139,0.1485,0.1732,0.1772,0.181,0.1712,0.1431,0.1431,0.1083,0.108,0.1078]},{"header":{"parameterUnit":"m.s-1","parameterCategory":2,"la1":30.2991,"la2":30.254,"lo1":-89.0895,"lo2":-89.0444,"dy":0.0017,"dx":0.0017,"nx":28,"ny":28,"refTime":"2023-08-15T03:00:00:Z","depth":"0","parameterNumber":3,"parameterNumberName":"V-component_of_CURRENTS"},"data":[0,0,0,0,0,0,0,0,0,0,0,0,0,0,0,0,0,0,0,0,0,0,0,0,0,0,0,0,0,0,0,0,0,0,0,0,0,0,0,0,0,0,0,0,0,0,0,0,0,0,0,0,0,0,0,0,0,0,-0.0879,-0.0878,0,-0.0768,-0.0766,-0.0764,-0.0764,-0.0766,-0.0768,-0.077,-0.0747,-0.0744,-0.0741,0,0,0,0,0,0,0,0,0,0,0,0,0,-0.0942,-0.0941,-0.0879,-0.0878,-0.0878,-0.0768,-0.0766,-0.0763,-0.0763,-0.0766,-0.0769,-0.0771,-0.0748,-0.0744,-0.0741,0,0,0,0,0,0,0,0,0,0,0,0,0,-0.0873,-0.0941,-0.0879,-0.0871,-0.0869,-0.0768,-0.0765,-0.0763,-0.0763,-0.0766,-0.0769,-0.0772,-0.0749,-0.0745,-0.0741,-0.065,0,0,-0.0728,-0.0727,0,0,0,0,0,0,0,0,-0.0877,-0.087,-0.0872,-0.0871,-0.087,-0.079,-0.0779,-0.0732,-0.0762,-0.0794,-0.077,-0.0774,-0.0772,-0.0766,-0.0725,-0.0648,-0.0647,-0.0728,-0.0726,-0.0724,-0.0723,0,0,0,0,0,0,0,-0.0882,-0.0874,-0.0826,-0.0872,-0.087,-0.0822,-0.0816,-0.0769,-0.0761,-0.0792,-0.0794,-0.0793,-0.0772,-0.0729,-0.0725,-0.0647,-0.0728,-0.0725,-0.0722,-0.0721,-0.0606,-0.0605,0,0,0,0,0,0,-0.0917,-0.0879,-0.083,-0.0824,-0.0891,-0.0819,-0.0812,-0.0805,-0.076,-0.0758,-0.0791,-0.0794,-0.0734,-0.073,-0.0724,-0.0673,-0.0724,-0.072,-0.0718,-0.0607,-0.0606,-0.0605,0,0,0,0,0,0,-0.0918,-0.0913,-0.0835,-0.0856,-0.0844,-0.0817,-0.0807,-0.0802,-0.0778,-0.076,-0.0758,-0.0778,-0.0736,-0.073,-0.0708,-0.0671,-0.0718,-0.0715,-0.0607,-0.0606,-0.0606,-0.0533,0,0,0,0,0,0,-0.092,-0.0914,-0.0899,-0.0858,-0.0845,-0.0774,-0.0805,-0.0797,-0.0776,-0.0779,-0.0747,-0.0747,-0.0739,-0.0714,-0.0704,-0.0666,-0.0712,-0.0608,-0.0607,-0.0606,-0.0536,-0.053,-0.0524,0,0,0,0,0,-0.0922,-0.0903,-0.0899,-0.0892,-0.0832,-0.0773,-0.0758,-0.0745,-0.0773,-0.074,-0.0746,-0.0749,-0.0701,-0.071,-0.0698,-0.0658,-0.0609,-0.0607,-0.0606,-0.0539,-0.0531,-0.0524,0,0,0,0,0,0,-0.0943,-0.0901,-0.0895,-0.087,-0.0824,-0.0777,-0.0746,-0.0743,-0.0712,-0.0732,-0.0727,-0.0725,-0.0695,-0.069,-0.0701,-0.0628,-0.0659,-0.0655,-0.0612,-0.0604,-0.0598,-0.0578,-0.0708,0,0,0,0,0,-0.0935,-0.0902,-0.0861,-0.084,-0.0816,-0.0778,-0.0751,-0.0745,-0.0724,-0.0713,-0.069,-0.0683,-0.0668,-0.0654,-0.0632,-0.0575,-0.058,-0.0549,-0.0543,-0.0538,-0.0517,-0.0509,-0.0499,-0.0601,-0.0601,-0.0601,0,0,-0.0945,-0.0915,-0.09,-0.084,-0.0803,-0.0743,-0.0768,-0.0731,-0.0688,-0.0715,-0.0649,-0.0655,-0.0654,-0.0603,-0.0588,-0.0598,-0.0514,-0.0536,-0.0531,-0.0512,-0.0506,-0.0496,-0.0487,-0.06,-0.06,-0.06,0,0,-0.0927,-0.0911,-0.086,-0.0813,-0.0759,-0.0727,-0.0722,-0.0665,-0.0645,-0.0585,-0.0614,-0.06,-0.0547,-0.0537,-0.0531,-0.0475,-0.0488,-0.0479,-0.0414,-0.0407,-0.0398,-0.039,-0.0387,-0.038,-0.0468,-0.0468,-0.0468,0,-0.0935,-0.0866,-0.0838,-0.0771,-0.0731,-0.0723,-0.0659,-0.0621,-0.0567,-0.0541,-0.0565,-0.0504,-0.0508,-0.0462,-0.0452,-0.0456,-0.0463,-0.0438,-0.0397,-0.0389,-0.0382,-0.0381,-0.0374,-0.0464,-0.0465,-0.0465,-0.0465,0,-0.0861,-0.0805,-0.0774,-0.0681,-0.0635,-0.0583,-0.0539,-0.0494,-0.0481,-0.0445,-0.0395,-0.0395,-0.0363,-0.0366,-0.0388,-0.034,-0.0365,-0.0395,-0.041,-0.0367,-0.037,-0.0363,-0.0459,-0.046,-0.0461,-0.0462,0,0,-0.0862,-0.0743,-0.0725,-0.0668,-0.0584,-0.0539,-0.0472,-0.0391,-0.0346,-0.0305,-0.0239,-0.0223,-0.0235,-0.0232,-0.0259,-0.025,-0.0218,-0.0297,-0.0299,-0.0285,-0.0205,-0.0247,-0.0245,-0.0246,-0.0244,-0.0243,-0.0227,0,-0.0797,-0.0669,-0.0625,-0.0511,-0.0438,-0.0409,-0.034,-0.0284,-0.024,-0.0171,-0.0178,-0.013,-0.0182,-0.0173,-0.017,-0.0214,-0.0197,-0.0219,-0.0256,-0.0257,-0.0292,-0.0237,-0.021,-0.0196,-0.0221,-0.022,-0.0219,0,-0.0698,-0.0633,-0.0513,-0.0409,-0.0376,-0.0319,-0.0218,-0.0157,-0.0082,-0.0053,-0.0017,-0.0019,-0.0001,-0.0056,-0.0077,-0.0093,-0.0131,-0.0164,-0.0165,-0.022,-0.0286,-0.0243,-0.0183,-0.0261,-0.0209,-0.021,-0.0211,0,-0.0661,-0.0537,-0.0445,-0.0406,-0.0299,-0.0255,-0.0203,-0.0119,-0.0058,0.0019,0.0066,0.0082,0.0089,0.005,-0.0026,-0.0047,-0.0058,-0.0098,-0.0161,-0.0165,-0.0154,-0.016,-0.0162,-0.0086,-0.0086,-0.0086,-0.0086,0,-0.0571,-0.0492,-0.0427,-0.0371,-0.0281,-0.0224,-0.012,-0.0067,0.0017,0.0099,0.0118,0.0174,0.0115,0.0097,0.0021,-0.0053,-0.0022,-0.0127,-0.0153,-0.0131,-0.0135,-0.0215,-0.0259,-0.0086,-0.0086,-0.0086,-0.0086,0,-0.0506,-0.0456,-0.0355,-0.0272,-0.0249,-0.0184,-0.0082,-0.0002,0.0061,0.0165,0.0191,0.0244,0.0225,0.0157,0.0094,0.0007,-0.0099,-0.0094,-0.0068,-0.0092,-0.0235,-0.0275,-0.0286,-0.0325,-0.0146,-0.0147,-0.0147,0,-0.045,-0.0393,-0.0306,-0.0255,-0.0214,-0.0129,-0.006,0.0014,0.0096,0.0207,0.0263,0.0288,0.0322,0.0213,0.0088,-0.0025,-0.0105,-0.01,-0.013,-0.0217,-0.0281,-0.0306,-0.0339,-0.0085,-0.0085,-0.0085,-0.0085,0,-0.0363,-0.034,-0.027,-0.0181,-0.011,-0.0026,0.0066,0.0127,0.022,0.0299,0.0393,0.0425,0.0349,0.0261,0.0098,0.001,-0.0145,-0.0108,-0.0188,-0.0215,-0.0247,-0.0307,-0.0134,-0.0086,-0.0086,-0.0086,-0.0086,-0.0086,-0.0311,-0.0255,-0.0174,-0.0085,-0.001,0.0084,0.0161,0.025,0.0361,0.0486,0.0478,0.0537,0.0398,0.0201,0.0069,-0.0148,-0.0154,-0.0225,-0.026,-0.0272,-0.0324,-0.0163,-0.0164,-0.0164,-0.0165,-0.0165,-0.0165,0,-0.0234,-0.0168,-0.0078,0.0031,0.0121,0.0141,0.026,0.0338,0.046,0.0549,0.0614,0.0574,0.0396,0.0202,-0.008,-0.0261,-0.0311,-0.0365,-0.0374,-0.0398,-0.0236,-0.025,-0.0282,-0.0282,-0.0281,-0.0281,-0.0281,-0.0281,-0.0182,-0.0077,-0.003,0.0131,0.02,0.0316,0.0382,0.0482,0.0563,0.0685,0.0722,0.0725,0.0603,0.0081,-0.0287,-0.0384,-0.0506,-0.053,-0.0615,-0.0494,-0.0483,-0.0473,-0.0497,-0.0579,-0.058,-0.074,-0.0742,-0.0743]}],[{"header":{"parameterUnit":"m.s-1","parameterCategory":2,"la1":30.2991,"la2":30.254,"lo1":-89.0895,"lo2":-89.0444,"dy":0.0017,"dx":0.0017,"nx":28,"ny":28,"refTime":"2023-08-15T03:00:00:Z","depth":"2","parameterNumber":2,"parameterNumberName":"U-component_of_CURRENTS"},"data":[0,0,0,0,0,0,0,0,0,0,0,0,0,0,0,0,0,0,0,0,0,0,0,0,0,0,0,0,0,0,0,0,0,0,0,0,0,0,0,0,0,0,0,0,0,0,0,0,0,0,0,0,0,0,0,0,0,0,0.0778,0.078,0,0.0975,0.0977,0.098,0.1091,0.1092,0.1092,0.1093,0.1295,0.13,0.1305,0,0,0,0,0,0,0,0,0,0,0,0,0,0.0882,0.0877,0.0777,0.078,0.0783,0.0975,0.0978,0.098,0.1091,0.1092,0.1093,0.1093,0.1294,0.1299,0.1305,0,0,0,0,0,0,0,0,0,0,0,0,0,0.0931,0.0875,0.0777,0.0862,0.0872,0.0974,0.0978,0.0981,0.1091,0.1092,0.1093,0.1093,0.1292,0.1299,0.1306,0.1336,0,0,0.1329,0.1332,0,0,0,0,0,0,0,0,0.0928,0.0927,0.0847,0.0857,0.0868,0.1011,0.1089,0.11,0.1091,0.1006,0.1093,0.1094,0.1201,0.1216,0.1249,0.1346,0.1354,0.1329,0.1334,0.1337,0.1339,0,0,0,0,0,0,0,0.0924,0.0922,0.0854,0.085,0.0863,0.1024,0.1028,0.1094,0.1096,0.1014,0.1023,0.1047,0.1206,0.1242,0.1255,0.1357,0.1329,0.1336,0.134,0.1343,0.1579,0.1581,0,0,0,0,0,0,0.088,0.0915,0.0848,0.086,0.0902,0.1019,0.1024,0.0963,0.1095,0.1117,0.1046,0.1052,0.1229,0.1246,0.1262,0.1431,0.1337,0.1344,0.1348,0.1578,0.158,0.1582,0,0,0,0,0,0,0.088,0.0868,0.084,0.0901,0.0908,0.1014,0.0947,0.0966,0.1042,0.112,0.1141,0.1105,0.123,0.1252,0.1343,0.1435,0.1347,0.1354,0.1575,0.1578,0.1581,0.1688,0,0,0,0,0,0,0.088,0.0865,0.0841,0.0893,0.0903,0.0941,0.0947,0.097,0.1054,0.1064,0.1177,0.1195,0.1232,0.1332,0.135,0.1443,0.1359,0.1573,0.1577,0.158,0.1683,0.1695,0.1705,0,0,0,0,0,0.0882,0.0868,0.0836,0.0832,0.0849,0.0944,0.0966,0.1047,0.1056,0.1112,0.1163,0.1193,0.1367,0.1339,0.136,0.1458,0.1571,0.1576,0.158,0.1677,0.1692,0.1705,0,0,0,0,0,0,0.0901,0.0878,0.0846,0.0817,0.0882,0.0964,0.1037,0.1066,0.1151,0.1172,0.1215,0.1238,0.1351,0.1374,0.1341,0.1529,0.1476,0.1485,0.1543,0.1558,0.1569,0.1619,0.1366,0,0,0,0,0,0.088,0.0879,0.0875,0.0877,0.0891,0.0957,0.1014,0.1066,0.1136,0.1178,0.124,0.1308,0.1379,0.1442,0.15,0.1609,0.1621,0.1682,0.1693,0.1702,0.1755,0.1822,0.1846,0.1596,0.1596,0.1596,0,0,0.0913,0.089,0.0901,0.0889,0.0937,0.1017,0.0996,0.1102,0.1194,0.1185,0.1326,0.1349,0.1408,0.1527,0.1582,0.1568,0.177,0.1708,0.1716,0.1764,0.1829,0.1854,0.1876,0.1598,0.1598,0.1598,0,0,0.1005,0.0922,0.0964,0.1007,0.1072,0.111,0.1138,0.1215,0.1268,0.138,0.1391,0.1467,0.1581,0.1648,0.1692,0.18,0.1812,0.1815,0.1946,0.201,0.2032,0.2052,0.206,0.2079,0.1839,0.184,0.184,0,0.1068,0.105,0.1014,0.107,0.1128,0.1148,0.1238,0.1304,0.1416,0.1455,0.1446,0.1609,0.1653,0.1802,0.1846,0.1837,0.1848,0.1892,0.2028,0.2048,0.2067,0.207,0.2091,0.1845,0.1845,0.1844,0.1843,0,0.1171,0.1191,0.1234,0.1282,0.1336,0.1437,0.1476,0.1543,0.1583,0.164,0.1767,0.1815,0.191,0.1938,0.1943,0.2102,0.2054,0.2018,0.1999,0.2099,0.2094,0.2114,0.1853,0.1851,0.185,0.1848,0,0,0.1283,0.1303,0.1334,0.1362,0.1452,0.1504,0.1626,0.1721,0.1783,0.1895,0.199,0.2129,0.2128,0.2178,0.2185,0.227,0.2388,0.2223,0.2224,0.2241,0.2502,0.2286,0.2285,0.2377,0.2382,0.2386,0.2432,0,0.1409,0.1507,0.1497,0.1651,0.1703,0.1724,0.1815,0.1902,0.1958,0.2046,0.2126,0.2212,0.2228,0.2253,0.236,0.237,0.2452,0.2378,0.2397,0.2397,0.2203,0.2306,0.2112,0.2122,0.2451,0.2454,0.2456,0,0.1546,0.1573,0.1695,0.1757,0.1777,0.1862,0.1947,0.2034,0.2141,0.2174,0.2295,0.2326,0.2486,0.2444,0.2611,0.2561,0.2569,0.2577,0.2577,0.2367,0.222,0.2083,0.2145,0.2488,0.2485,0.2483,0.2481,0,0.163,0.1738,0.1814,0.1851,0.1914,0.1953,0.1992,0.2079,0.2106,0.2244,0.2266,0.2461,0.2503,0.2622,0.2648,0.2644,0.2772,0.2743,0.2565,0.2546,0.2384,0.2342,0.2872,0.2872,0.2872,0.2872,0.2872,0,0.1765,0.1835,0.1843,0.1885,0.1933,0.1981,0.204,0.2086,0.216,0.2195,0.2322,0.2368,0.2551,0.2623,0.2687,0.2672,0.2802,0.2626,0.257,0.2404,0.2366,0.2689,0.2667,0.2873,0.2873,0.2873,0.2872,0,0.1823,0.1869,0.1916,0.1955,0.1964,0.1979,0.199,0.2021,0.2097,0.2143,0.2179,0.2311,0.2406,0.2528,0.2664,0.2643,0.2685,0.2633,0.2392,0.2307,0.2415,0.2398,0.249,0.2483,0.2478,0.2473,0.2469,0,0.1833,0.1876,0.1899,0.1886,0.1887,0.1905,0.1908,0.1976,0.1995,0.2084,0.2098,0.2197,0.223,0.2325,0.2353,0.2406,0.2528,0.2197,0.2166,0.2453,0.239,0.2381,0.2373,0.1989,0.1982,0.1976,0.1971,0,0.1797,0.1816,0.1811,0.1788,0.1786,0.1785,0.18,0.18,0.1885,0.191,0.1935,0.1962,0.2023,0.1975,0.1994,0.2008,0.2185,0.2062,0.2479,0.2078,0.1974,0.1913,0.1923,0.1916,0.1921,0.1925,0.1928,0.193,0.1709,0.1673,0.1669,0.1645,0.1649,0.1651,0.1612,0.164,0.1639,0.1632,0.1722,0.1673,0.1716,0.163,0.1623,0.1634,0.179,0.1739,0.1764,0.1793,0.1689,0.1577,0.1423,0.1426,0.1428,0.143,0.1432,0,0.1566,0.1546,0.1517,0.1491,0.1465,0.1523,0.1519,0.1458,0.141,0.1422,0.1397,0.1246,0.1192,0.128,0.1196,0.1186,0.1248,0.1156,0.1245,0.1296,0.1343,0.1223,0.0831,0.083,0.0828,0.0827,0,0,0.1467,0.1405,0.1409,0.1324,0.1317,0.1259,0.1239,0.1162,0.1129,0.1025,0.0974,0.1023,0.1129,0.0923,0.0929,0.0865,0.1075,0.0827,0.1299,0.1447,0.1492,0.1656,0.1522,0,0,0,0,0]},{"header":{"parameterUnit":"m.s-1","parameterCategory":2,"la1":30.2991,"la2":30.254,"lo1":-89.0895,"lo2":-89.0444,"dy":0.0017,"dx":0.0017,"nx":28,"ny":28,"refTime":"2023-08-15T03:00:00:Z","depth":"2","parameterNumber":3,"parameterNumberName":"V-component_of_CURRENTS"},"data":[0,0,0,0,0,0,0,0,0,0,0,0,0,0,0,0,0,0,0,0,0,0,0,0,0,0,0,0,0,0,0,0,0,0,0,0,0,0,0,0,0,0,0,0,0,0,0,0,0,0,0,0,0,0,0,0,0,0,-0.0265,-0.0265,0,-0.0249,-0.0248,-0.0247,-0.0304,-0.0307,-0.0309,-0.0312,-0.0344,-0.0343,-0.0341,0,0,0,0,0,0,0,0,0,0,0,0,0,-0.0409,-0.0405,-0.0264,-0.0265,-0.0266,-0.0249,-0.0248,-0.0247,-0.0304,-0.0307,-0.031,-0.0313,-0.0345,-0.0343,-0.0341,0,0,0,0,0,0,0,0,0,0,0,0,0,-0.0356,-0.0404,-0.0264,-0.0299,-0.0303,-0.0249,-0.0248,-0.0246,-0.0303,-0.0307,-0.0311,-0.0314,-0.0345,-0.0343,-0.0341,-0.025,0,0,-0.0334,-0.0333,0,0,0,0,0,0,0,0,-0.0359,-0.035,-0.0293,-0.0297,-0.0301,-0.029,-0.0311,-0.0253,-0.0302,-0.0293,-0.0312,-0.0316,-0.0334,-0.0333,-0.0307,-0.0252,-0.0253,-0.0334,-0.0332,-0.0331,-0.0331,0,0,0,0,0,0,0,-0.0362,-0.0351,-0.0249,-0.0294,-0.0298,-0.0339,-0.0333,-0.03,-0.0286,-0.0294,-0.0301,-0.0312,-0.0335,-0.0309,-0.0309,-0.0254,-0.0334,-0.0332,-0.033,-0.0329,-0.0254,-0.0254,0,0,0,0,0,0,-0.0374,-0.0353,-0.025,-0.0249,-0.035,-0.0333,-0.0327,-0.0282,-0.0285,-0.0292,-0.0309,-0.0315,-0.0311,-0.0311,-0.031,-0.0294,-0.0331,-0.0329,-0.0328,-0.0255,-0.0254,-0.0253,0,0,0,0,0,0,-0.0376,-0.0362,-0.025,-0.0313,-0.0303,-0.0327,-0.0276,-0.028,-0.0288,-0.0298,-0.0304,-0.0318,-0.0314,-0.0314,-0.0316,-0.0293,-0.0328,-0.0326,-0.0256,-0.0255,-0.0254,-0.0203,0,0,0,0,0,0,-0.0379,-0.0361,-0.0325,-0.0311,-0.03,-0.0233,-0.0274,-0.0277,-0.0292,-0.03,-0.0306,-0.0312,-0.0317,-0.032,-0.0314,-0.0291,-0.0324,-0.0256,-0.0255,-0.0254,-0.0206,-0.0201,-0.0197,0,0,0,0,0,-0.0383,-0.0342,-0.0321,-0.031,-0.0248,-0.0233,-0.0229,-0.0256,-0.0289,-0.0278,-0.0301,-0.0313,-0.0309,-0.0317,-0.031,-0.0286,-0.0257,-0.0256,-0.0254,-0.0208,-0.0202,-0.0197,0,0,0,0,0,0,-0.0403,-0.0344,-0.0322,-0.0265,-0.0251,-0.0247,-0.0247,-0.0258,-0.026,-0.0288,-0.0296,-0.03,-0.029,-0.0295,-0.0304,-0.0264,-0.0287,-0.0284,-0.0254,-0.0248,-0.0243,-0.0248,-0.0322,0,0,0,0,0,-0.0379,-0.0332,-0.0289,-0.0256,-0.0239,-0.0236,-0.0234,-0.0254,-0.0262,-0.0268,-0.0267,-0.0277,-0.0266,-0.027,-0.0257,-0.0226,-0.0236,-0.0211,-0.0206,-0.0202,-0.0203,-0.0195,-0.019,-0.0249,-0.0249,-0.0249,0,0,-0.039,-0.035,-0.0328,-0.0258,-0.0247,-0.0219,-0.0243,-0.0253,-0.0245,-0.0268,-0.0254,-0.0253,-0.0254,-0.0229,-0.0225,-0.024,-0.019,-0.0201,-0.0197,-0.02,-0.0193,-0.0187,-0.0182,-0.0248,-0.0248,-0.0248,0,0,-0.0393,-0.0335,-0.0289,-0.0265,-0.0247,-0.0237,-0.0242,-0.0226,-0.0228,-0.0208,-0.0228,-0.0219,-0.0196,-0.0188,-0.0184,-0.0142,-0.0162,-0.0144,-0.0124,-0.0116,-0.0111,-0.0107,-0.011,-0.0106,-0.0147,-0.0147,-0.0147,0,-0.041,-0.0326,-0.0286,-0.0242,-0.0233,-0.0244,-0.0215,-0.0203,-0.0199,-0.0183,-0.0212,-0.0168,-0.0172,-0.0136,-0.0134,-0.0129,-0.014,-0.0143,-0.0109,-0.0105,-0.0102,-0.0106,-0.0103,-0.0144,-0.0144,-0.0145,-0.0145,0,-0.0359,-0.031,-0.0297,-0.0224,-0.0204,-0.02,-0.0174,-0.0158,-0.0166,-0.0149,-0.0116,-0.0113,-0.009,-0.0086,-0.0101,-0.0069,-0.009,-0.0099,-0.0122,-0.0093,-0.0099,-0.0097,-0.014,-0.0141,-0.0142,-0.0143,0,0,-0.0363,-0.0272,-0.0271,-0.0237,-0.0199,-0.0183,-0.0156,-0.0111,-0.0083,-0.0079,-0.0031,-0.0022,-0.0022,-0.0018,-0.0025,-0.0028,-0.0012,-0.0061,-0.0062,-0.0062,-0.0009,-0.0038,-0.0038,-0.0022,-0.0021,-0.0021,-0.0022,0,-0.0341,-0.0262,-0.022,-0.0182,-0.0141,-0.0129,-0.009,-0.0064,-0.0038,0.0012,0.0009,0.0052,0.0005,0.0023,0.0011,-0.0003,-0.0005,-0.0012,-0.004,-0.0041,-0.0068,-0.0035,-0.0018,-0.002,-0.002,-0.002,-0.002,0,-0.0288,-0.0248,-0.0188,-0.0134,-0.0112,-0.009,-0.0028,0.0006,0.0066,0.0091,0.0117,0.0126,0.0131,0.0092,0.0062,0.0053,0.0024,0.0003,0.0003,-0.0041,-0.0065,-0.005,-0.0015,-0.0016,-0.0016,-0.0016,-0.0016,0,-0.0295,-0.0228,-0.0185,-0.0167,-0.0099,-0.0073,-0.004,0.0028,0.0084,0.0147,0.0196,0.0194,0.0209,0.0161,0.0102,0.0086,0.0064,0.0046,-0.0004,-0.0007,-0.0006,-0.001,0.0038,0.0038,0.0038,0.0038,0.0038,0,-0.0269,-0.0238,-0.0187,-0.0163,-0.0104,-0.0066,0.0013,0.0057,0.0138,0.0219,0.0233,0.029,0.0224,0.0207,0.0134,0.0064,0.009,0.0005,-0.0005,0.0011,0.0009,-0.0002,-0.0007,0.0038,0.0038,0.0038,0.0038,0,-0.0256,-0.0228,-0.0172,-0.0116,-0.0098,-0.0052,0.0048,0.0121,0.018,0.0286,0.0311,0.036,0.0339,0.0269,0.0206,0.0119,0.0055,0.0029,0.0042,0.0034,-0.003,-0.0032,-0.0023,-0.0024,-0.0025,-0.0025,-0.0026,0,-0.0228,-0.0203,-0.0143,-0.0099,-0.0068,0.0,0.0066,0.0135,0.0219,0.0332,0.039,0.0413,0.0441,0.033,0.0206,0.0089,0.007,0.0011,-0.0013,-0.0024,-0.0034,-0.0035,-0.0036,0.0012,0.0011,0.0011,0.0011,0,-0.0178,-0.0165,-0.0111,-0.0032,0.003,0.011,0.0196,0.0263,0.0355,0.0433,0.0526,0.0552,0.0469,0.0364,0.0202,0.0121,0.0025,0.0003,0.001,0.0016,0.0006,-0.0004,-0.0005,0.001,0.001,0.001,0.001,0.001,-0.0135,-0.0082,-0.0018,0.0063,0.0132,0.0226,0.0307,0.0393,0.0505,0.0621,0.061,0.0631,0.0503,0.0309,0.0172,0.0027,0.0034,-0.0035,-0.0033,-0.0031,-0.0035,-0.0047,-0.0054,-0.0054,-0.0054,-0.0055,-0.0055,0,-0.007,-0.0004,0.008,0.0183,0.0271,0.0283,0.0408,0.049,0.0613,0.0661,0.071,0.0594,0.0472,0.0326,0.0114,-0.0025,-0.0023,-0.007,-0.0039,-0.0036,-0.0034,-0.0038,-0.0057,-0.0058,-0.0058,-0.0059,0,0,-0.0019,0.0079,0.0127,0.0288,0.0353,0.0468,0.054,0.0639,0.0695,0.0758,0.074,0.0694,0.0506,0.0343,0.0178,0.0059,0.0041,0.0037,0.0055,0.0115,0.0119,0.0003,0.0002,0,0,0,0,0]}],[{"header":{"parameterUnit":"m.s-1","parameterCategory":2,"la1":30.2991,"la2":30.254,"lo1":-89.0895,"lo2":-89.0444,"dy":0.0017,"dx":0.0017,"nx":28,"ny":28,"refTime":"2023-08-15T03:00:00:Z","depth":"4","parameterNumber":2,"parameterNumberName":"U-component_of_CURRENTS"},"data":[0,0,0,0,0,0,0,0,0,0,0,0,0,0,0,0,0,0,0,0,0,0,0,0,0,0,0,0,0,0,0,0,0,0,0,0,0,0,0,0,0,0,0,0,0,0,0,0,0,0,0,0,0,0,0,0,0,0,-0.0617,-0.0618,0,-0.0763,-0.0765,-0.0767,-0.0863,-0.0862,-0.0862,-0.0862,-0.0937,-0.0939,-0.0942,0,0,0,0,0,0,0,0,0,0,0,0,0,-0.0634,-0.0632,-0.0617,-0.0618,-0.0619,-0.0762,-0.0765,-0.0768,-0.0863,-0.0862,-0.0862,-0.0862,-0.0937,-0.0939,-0.0942,0,0,0,0,0,0,0,0,0,0,0,0,0,-0.0696,-0.0632,-0.0617,-0.0676,-0.0683,-0.0762,-0.0765,-0.0769,-0.0863,-0.0862,-0.0862,-0.0862,-0.0936,-0.0939,-0.0942,-0.0971,0,0,-0.0952,-0.0954,0,0,0,0,0,0,0,0,-0.0692,-0.0696,-0.0667,-0.0672,-0.0679,-0.0786,-0.0798,-0.083,-0.0863,-0.0804,-0.0862,-0.0861,-0.0874,-0.0883,-0.0925,-0.0974,-0.0977,-0.0953,-0.0955,-0.0956,-0.0957,0,0,0,0,0,0,0,-0.0687,-0.0692,-0.0684,-0.0667,-0.0675,-0.0768,-0.0776,-0.0807,-0.0845,-0.0809,-0.0814,-0.0816,-0.0878,-0.0922,-0.0927,-0.0978,-0.0953,-0.0956,-0.0958,-0.0959,-0.115,-0.1152,0,0,0,0,0,0,-0.0639,-0.0686,-0.0679,-0.0688,-0.0674,-0.0767,-0.0776,-0.076,-0.0847,-0.0858,-0.0816,-0.0819,-0.0916,-0.0923,-0.093,-0.0887,-0.0956,-0.0959,-0.0961,-0.1147,-0.115,-0.1154,0,0,0,0,0,0,-0.0639,-0.0637,-0.0673,-0.0685,-0.0694,-0.0764,-0.0747,-0.0762,-0.0807,-0.0851,-0.0862,-0.0843,-0.0916,-0.0925,-0.0967,-0.0893,-0.0961,-0.0964,-0.1143,-0.1148,-0.1152,-0.0852,0,0,0,0,0,0,-0.0639,-0.0635,-0.0642,-0.068,-0.0691,-0.0721,-0.0747,-0.0765,-0.0803,-0.081,-0.0877,-0.0885,-0.0917,-0.0962,-0.097,-0.0899,-0.0967,-0.1139,-0.1145,-0.115,-0.0858,-0.0845,-0.0835,0,0,0,0,0,-0.0638,-0.0656,-0.0641,-0.0642,-0.0685,-0.072,-0.0737,-0.0793,-0.0805,-0.0832,-0.0875,-0.0883,-0.1006,-0.0966,-0.0975,-0.0902,-0.1136,-0.1143,-0.115,-0.0863,-0.0848,-0.0835,0,0,0,0,0,0,-0.0673,-0.0667,-0.0652,-0.0665,-0.068,-0.0733,-0.0768,-0.0791,-0.0852,-0.0833,-0.0898,-0.0909,-0.0926,-0.1,-0.0955,-0.1002,-0.1082,-0.1091,-0.0861,-0.0848,-0.0837,-0.0822,-0.0969,0,0,0,0,0,-0.0671,-0.0686,-0.0675,-0.069,-0.0681,-0.0717,-0.0747,-0.0749,-0.079,-0.0818,-0.0815,-0.0878,-0.0969,-0.0972,-0.1041,-0.1039,-0.1083,-0.1026,-0.1014,-0.1002,-0.1015,-0.1091,-0.1083,-0.1176,-0.1176,-0.1176,0,0,-0.0691,-0.0689,-0.0699,-0.07,-0.0712,-0.0678,-0.0738,-0.0738,-0.0707,-0.081,-0.0749,-0.0822,-0.0976,-0.0976,-0.0991,-0.101,-0.0975,-0.1011,-0.0997,-0.1018,-0.1097,-0.1086,-0.1077,-0.1181,-0.118,-0.1179,0,0,-0.0708,-0.0714,-0.0707,-0.0693,-0.0668,-0.0672,-0.0659,-0.063,-0.0628,-0.0581,-0.0682,-0.0747,-0.0763,-0.0884,-0.0961,-0.0959,-0.0928,-0.0945,-0.0824,-0.0894,-0.0883,-0.0876,-0.0765,-0.0751,-0.0914,-0.0913,-0.0912,0,-0.0718,-0.069,-0.0719,-0.0673,-0.0647,-0.065,-0.0592,-0.0597,-0.0568,-0.0579,-0.0519,-0.0667,-0.0747,-0.0898,-0.0858,-0.0921,-0.0873,-0.0823,-0.0863,-0.0858,-0.0855,-0.0747,-0.0734,-0.0899,-0.0901,-0.0902,-0.0904,0,-0.0702,-0.0659,-0.0649,-0.0576,-0.0567,-0.052,-0.0477,-0.0434,-0.0377,-0.0382,-0.0427,-0.0524,-0.062,-0.0652,-0.0715,-0.0767,-0.07,-0.0834,-0.0853,-0.0824,-0.0714,-0.0705,-0.088,-0.0885,-0.0889,-0.0892,0,0,-0.0712,-0.065,-0.0623,-0.0572,-0.049,-0.0475,-0.0406,-0.0392,-0.0388,-0.031,-0.0322,-0.0435,-0.0447,-0.0549,-0.0644,-0.0684,-0.0545,-0.067,-0.068,-0.0476,-0.0499,-0.0462,-0.0449,-0.0619,-0.062,-0.0621,-0.0368,0,-0.066,-0.0574,-0.0546,-0.0437,-0.0379,-0.0345,-0.0303,-0.0288,-0.0265,-0.0253,-0.0373,-0.039,-0.0425,-0.0405,-0.046,-0.0536,-0.0533,-0.059,-0.0638,-0.0637,-0.0542,-0.0448,-0.0625,-0.0363,-0.0361,-0.036,-0.0359,0,-0.06,-0.0558,-0.0446,-0.0368,-0.0336,-0.0254,-0.0212,-0.0166,-0.0207,-0.0176,-0.0215,-0.0267,-0.0282,-0.0342,-0.037,-0.0352,-0.039,-0.0457,-0.0453,-0.054,-0.0593,-0.0456,-0.0346,-0.0347,-0.0348,-0.0349,-0.035,0,-0.0595,-0.0469,-0.039,-0.0347,-0.0262,-0.0192,-0.0125,-0.0129,-0.0099,-0.0085,-0.004,-0.0114,-0.0084,-0.0142,-0.0182,-0.0206,-0.0233,-0.0324,-0.0354,-0.0343,-0.0576,-0.059,-0.0433,-0.0434,-0.0434,-0.0435,-0.0436,0,-0.0531,-0.0472,-0.0357,-0.0312,-0.0201,-0.0129,-0.003,-0.0001,0.0037,0.0041,0.0049,0.0028,-0.0028,-0.0057,-0.0108,-0.0122,-0.0151,-0.0291,-0.0306,-0.0439,-0.0442,-0.0557,-0.0575,-0.0425,-0.0427,-0.0429,-0.0431,0,-0.0528,-0.0458,-0.0379,-0.0256,-0.0188,-0.0087,0.0097,0.0124,0.021,0.023,0.0287,0.0234,0.0242,0.0146,0.0035,-0.0006,-0.007,-0.0139,-0.0113,-0.0139,-0.011,-0.0117,-0.0009,-0.0006,-0.0004,-0.0002,-0.0001,0,-0.0518,-0.0481,-0.0344,-0.0261,-0.0168,0.0005,0.0095,0.0219,0.0248,0.0311,0.0292,0.0317,0.0258,0.0238,0.0098,0.0076,-0.006,0.0043,-0.0167,-0.0054,-0.008,-0.0091,-0.01,0.0003,0.0004,0.0004,0.0005,0,-0.0524,-0.0486,-0.0426,-0.0272,-0.0124,-0.0,0.0155,0.02,0.0296,0.0365,0.0367,0.0362,0.0291,0.0224,0.0193,0.0104,0.0096,0.0065,0.0057,-0.0139,-0.0039,-0.0069,-0.0081,0.0013,0.0012,0.0011,0.0011,0,-0.0536,-0.0495,-0.0414,-0.0276,-0.0137,-0.0037,0.006,0.0159,0.0241,0.0329,0.0308,0.0279,0.0271,0.0229,0.0182,0.0166,0.0113,0.0132,0.012,0.011,0.0003,0.0138,0.0271,0,0,0,0,0,-0.0502,-0.0483,-0.0411,-0.0267,-0.0167,-0.0074,0.0052,0.0127,0.023,0.0248,0.0308,0.0251,0.0236,0.0197,0.0181,0.0136,0.0059,0.0121,0.0062,0.0058,0.0048,-0.0106,0,0,0,0,0,0,-0.0479,-0.043,-0.0431,-0.0316,-0.0225,-0.0103,-0.0024,0.0042,0.0076,0.0177,0.0145,0.0272,0.0201,0.0221,0.0175,0.0171,0.0146,0.0132,0.0134,0.0063,0.0055,0.0047,-0.0115,0,0,0,0,0]},{"header":{"parameterUnit":"m.s-1","parameterCategory":2,"la1":30.2991,"la2":30.254,"lo1":-89.0895,"lo2":-89.0444,"dy":0.0017,"dx":0.0017,"nx":28,"ny":28,"refTime":"2023-08-15T03:00:00:Z","depth":"4","parameterNumber":3,"parameterNumberName":"V-component_of_CURRENTS"},"data":[0,0,0,0,0,0,0,0,0,0,0,0,0,0,0,0,0,0,0,0,0,0,0,0,0,0,0,0,0,0,0,0,0,0,0,0,0,0,0,0,0,0,0,0,0,0,0,0,0,0,0,0,0,0,0,0,0,0,0.0291,0.0291,0,0.0318,0.0319,0.0319,0.043,0.0432,0.0434,0.0435,0.0347,0.0343,0.0339,0,0,0,0,0,0,0,0,0,0,0,0,0,0.0354,0.0353,0.0291,0.0291,0.0291,0.0318,0.0319,0.032,0.0429,0.0432,0.0434,0.0436,0.0348,0.0344,0.0339,0,0,0,0,0,0,0,0,0,0,0,0,0,0.0354,0.0352,0.0291,0.0344,0.0348,0.0317,0.0319,0.032,0.0429,0.0432,0.0435,0.0437,0.035,0.0344,0.0338,0.0242,0,0,0.0319,0.0316,0,0,0,0,0,0,0,0,0.0354,0.0353,0.0336,0.034,0.0345,0.0367,0.0308,0.0286,0.0428,0.0406,0.0435,0.0439,0.0336,0.0332,0.0342,0.0238,0.0234,0.0318,0.0315,0.0312,0.031,0,0,0,0,0,0,0,0.0354,0.0352,0.0309,0.0335,0.0341,0.0371,0.0375,0.0306,0.0358,0.0408,0.0414,0.0405,0.0339,0.0348,0.034,0.0233,0.0319,0.0313,0.0309,0.0307,0.014,0.0139,0,0,0,0,0,0,0.0332,0.0352,0.0308,0.0309,0.0349,0.0367,0.0372,0.0363,0.0361,0.0363,0.0402,0.041,0.0357,0.0347,0.0337,0.0284,0.0312,0.0306,0.0303,0.014,0.014,0.0139,0,0,0,0,0,0,0.0333,0.0328,0.0307,0.0326,0.0325,0.0362,0.0352,0.0362,0.0463,0.0357,0.0359,0.0503,0.0359,0.0346,0.0305,0.0278,0.0303,0.0298,0.0141,0.014,0.0139,0.0136,0,0,0,0,0,0,0.0335,0.0328,0.0335,0.0324,0.0322,0.0337,0.0348,0.036,0.0443,0.0456,0.044,0.0431,0.036,0.0315,0.0299,0.027,0.0293,0.0142,0.0141,0.014,0.0137,0.0135,0.0133,0,0,0,0,0,0.0337,0.0339,0.0335,0.033,0.0323,0.0337,0.0343,0.0382,0.0446,0.0489,0.0456,0.0437,0.0296,0.0309,0.0291,0.0259,0.0143,0.0141,0.014,0.0138,0.0135,0.0133,0,0,0,0,0,0,0.0362,0.0348,0.0345,0.034,0.0354,0.0355,0.0411,0.0437,0.0456,0.0504,0.0419,0.0403,0.0343,0.0318,0.0335,0.0211,0.0219,0.0214,0.0224,0.0221,0.0219,0.0234,0.0288,0,0,0,0,0,0.0362,0.0392,0.0358,0.0376,0.0395,0.0424,0.0449,0.0487,0.0485,0.051,0.0467,0.0417,0.0305,0.0288,0.0202,0.0151,0.0141,0.0124,0.0122,0.012,0.0122,0.0032,0.0021,0.0133,0.0133,0.0134,0,0,0.0368,0.038,0.0387,0.0389,0.0429,0.0442,0.0456,0.0543,0.0535,0.0483,0.0488,0.0407,0.0288,0.0197,0.0173,0.0189,0.0102,0.0118,0.0117,0.012,0.0029,0.0017,0.0008,0.0132,0.0133,0.0133,0,0,0.0438,0.043,0.0489,0.0504,0.0567,0.0543,0.0588,0.0616,0.0622,0.0593,0.0515,0.0424,0.0338,0.0197,0.0118,0.0065,0.0079,0.0076,0.0089,0.0001,-0.0009,-0.0019,0.0036,0.0031,0.0093,0.0093,0.0093,0,0.0451,0.0504,0.0509,0.0574,0.0581,0.0598,0.0642,0.0618,0.0618,0.0566,0.0612,0.0385,0.0306,0.0096,0.0083,0.0052,0.0078,0.0101,-0.0003,-0.0013,-0.0022,0.0034,0.0029,0.0092,0.0092,0.0092,0.0093,0,0.0551,0.0601,0.0657,0.0707,0.0703,0.0771,0.0704,0.07,0.0702,0.063,0.0489,0.0358,0.023,0.017,0.0113,-0.0022,0.005,-0.0011,0.0003,-0.0034,0.003,0.0025,0.0092,0.0092,0.0092,0.0092,0,0,0.0556,0.0694,0.0718,0.0759,0.079,0.0789,0.0747,0.0654,0.0599,0.0549,0.0442,0.0238,0.0206,0.0117,0.002,-0.006,-0.0087,-0.0024,-0.0028,0.0035,-0.0146,-0.0139,-0.0142,-0.0147,-0.015,-0.0153,-0.0043,0,0.0643,0.079,0.0801,0.0871,0.0922,0.0867,0.0796,0.0706,0.061,0.0497,0.0326,0.0211,0.0169,0.0137,0.0034,-0.0079,-0.0112,-0.0103,-0.0123,-0.0121,-0.0112,-0.0157,-0.0162,-0.0048,-0.0049,-0.005,-0.0051,0,0.072,0.0812,0.0929,0.0945,0.0954,0.0954,0.0822,0.0764,0.0559,0.05,0.0352,0.0249,0.01,0.0092,-0.0073,-0.004,-0.0064,-0.0137,-0.0136,-0.0141,-0.013,-0.0025,-0.0061,-0.006,-0.0059,-0.0058,-0.0058,0,0.0736,0.0863,0.0962,0.0985,0.1001,0.099,0.0947,0.0772,0.0688,0.0524,0.0464,0.0273,0.0202,0.0105,-0.0009,-0.0002,-0.0168,-0.0189,-0.0205,-0.0197,-0.023,-0.0223,-0.0294,-0.0294,-0.0294,-0.0295,-0.0295,0,0.0772,0.0858,0.0995,0.1049,0.1062,0.1055,0.0988,0.0896,0.0765,0.0625,0.0504,0.0357,0.0202,0.0072,0.0011,-0.01,-0.0134,-0.0199,-0.0207,-0.0218,-0.0211,-0.0228,-0.0222,-0.029,-0.0291,-0.0292,-0.0293,0,0.0762,0.0887,0.0997,0.1081,0.1092,0.1095,0.1046,0.0971,0.0883,0.0707,0.0689,0.0454,0.0306,0.0159,-0.0017,-0.0075,-0.0182,-0.0214,-0.0122,-0.0126,-0.012,-0.0115,-0.0164,-0.0163,-0.0163,-0.0163,-0.0163,0,0.0763,0.0858,0.1011,0.1048,0.11,0.1113,0.1091,0.1033,0.0941,0.0714,0.0619,0.0455,0.0289,0.0084,-0.0059,-0.0128,-0.0183,-0.0155,-0.0223,-0.0122,-0.0124,-0.012,-0.0115,-0.0162,-0.0162,-0.0162,-0.0162,0,0.0741,0.0851,0.0919,0.1017,0.1058,0.1052,0.1026,0.0972,0.0852,0.0805,0.0554,0.0405,0.0205,0.0049,-0.0004,-0.0091,-0.0134,-0.0152,-0.0153,-0.0217,-0.0121,-0.0122,-0.0118,-0.0161,-0.0161,-0.0161,-0.0161,0,0.0704,0.0729,0.0851,0.091,0.0979,0.0951,0.0945,0.0858,0.0789,0.0596,0.0506,0.0294,0.0189,0.0064,-0.002,-0.0064,-0.0077,-0.0074,-0.0079,-0.0081,-0.0129,0.0002,-0.0012,0,0,0,0,0,0.0613,0.064,0.0709,0.0765,0.0856,0.0881,0.0864,0.0852,0.077,0.0616,0.057,0.0389,0.0204,0.0089,0.0051,-0.0014,-0.0081,-0.0059,-0.0076,-0.0156,-0.0157,-0.0234,0,0,0,0,0,0,0.0552,0.0608,0.0659,0.0669,0.0693,0.0729,0.0726,0.0677,0.0593,0.0522,0.043,0.0403,0.0237,0.0235,0.0052,0.0029,0.0018,-0.0129,-0.0129,-0.0155,-0.0156,-0.0157,-0.0237,0,0,0,0,0]}]]